Showing default

HULIANWANG DIGUI-117, 66956

Orbit data source: Space-Track

HULIANWANG DIGUI-117, 66956 is a payload satellite owned by Zhongguo Xingwang (CN) in LEO that was launched on Mon, 08 Dec 2025 UTC via a CHANG ZHENG 6A launch vehicle from the Taiyaun Space Center, China (TSC). Payload-class satellites include a variety of spacecraft equipped with specific instruments for various scientific and technological missions. These include communications satellites like Starlink; space stations such as the ISS; scientific satellites like the Hubble; Earth observation satellites from companies like Planet Labs, Umbra, and HawkEye 360; GPS; miniature CubeSats for education and research; and military/defense satellites.

Loading next visibility...
Identifier
66956, 2025-287D
Orbit
LEO
Country
Flag of CNCN / PRC
Related business
Manufacturer
CAST
Mission
Operational Civil Communications
Bus & Motor
XINGWANG C, Unknown motor
Mass
~700 kg wet, ~700 kg dry
Launch date (UTC)
2025-12-08 (6 months ago)
Launch vehicle
CHANG ZHENG 6A
Launch site
Taiyaun Space Center, China (TSC)
Object type
Payload
Rocket body
Debris
Shape & HBR
Box + 2 Pan, 14.5 m
Radar Cross Section
5.935 m², Large (>1 m²)

Expand to show TLE details & history
Last TLE update: 12 hours ago

TLE from 12 hours ago
0 HULIANWANG DIGUI-117
1 66956U 25287D   26171.36776461  .00000034  00000-0  43938-4 0  9991
2 66956  86.4954 281.3059 0002375  68.5050 291.6337 13.24411292 25769
Epoch: 2026-06-20T08:49Z
TLE epoch observation values (Epoch: 2026-06-20T08:49:34.862Z)
Latitude
-0.00002°
Longitude
-119.67276°
Altitude
1,170.151 km
Speed
7.269 km/s
True Right ascension
18h 45m 13s
True Declination
0° 00' 00"
Sunlit
Object was in full shadow at epoch
Visualization orbit readout
Latitude
Unknown
Longitude
Unknown
Altitude
Unknown
Speed
Unknown
Apparent Right ascension
Unknown
Apparent Declination
Unknown
Sunlit
N/A
Visualization observer readout
Local Sidereal Time
07:17:38
Azimuth
Unknown
Elevation
Unknown
Doppler factor
Unknown
Orbital elements
Apogee altitude
1,166.829 km
Perigee altitude
1,163.246 km
Semi-major axis
7,543.174 km
Eccentricity
0.00024
Inclination
86.4954°
RAAN
281.3059°
Arg. of periapsis
68.505°
True anomaly
291.6084°
Mean anomaly
291.6337°
Eccentric anomaly
291.62105°
Mean motion
3.31293 °/min
Orbital period
108.67 mins
BSTAR
0.000043938
Loading maneuver chart data...
Computing Atmospheric mass density...
Loading historical data...
Loading historical data...
Loading historical data...
Loading historical data...
Loading historical data...
Loading historical data...
Loading historical data...

Documentation

Showing up to 5 results
|